Starlink 30193

operational
NORAD ID: 57414 Int'l Des: 2023-102 Owner: SPXS Country: US Constellation: starlink
LEOCIRCULAR

Über Starlink 30193

Beschreibung wird geladen...

Live-Position

3D-Globus wird geladen...

Nächste Überflüge

Höhenverlauf

Altitude vs Time

uPlot chart will show altitude changes over time

Zweizeiliger Elementsatz

1 57414U 23102L 25306.48502742 .00005100 00000-0 39235-3 0 9998
2 57414 43.0026 219.8701 0001152 280.7492 79.3221 15.02536508127107
Epoch: 2. Nov. 2025 • Age: 34 hours

Aktueller Status

Höhe 559.9 km
Geschwindigkeit 7.58 km/s
Subsatellitenpunkt -5.82°S, 25.22°E
Startdatum 19. Juli 2023
Alter 2.2 years
Typ internet

Technische Details

Klassifizierung Payload
Masse 730.00 kg
Trockenmasse 700.00 kg
Gesamtmasse 730.00 kg
Länge 0.30 m
Durchmesser 4.10 m
Spannweite 29.00 m
Form Box + pan
Hersteller SPXS
Bus-Typ Starlink V2M
Phasenstatus In Orbit
Besitzer/Staat SPXS/US

Große Konstellationen

Loading constellations...